Regional Weather Roundup
Issued by NWS

Home | Current Version | Previous Version | Graphics & Text | Print | Product List | Glossary On
Versions: 1 2 3 4 5 6 7 8 9 10 11 12 13 14 15 16 17 18 19 20 21 22 23 24 25 26 27
000
ASUS43 KDMX 161607
RWRIA

WEATHER ROUNDUP FOR IOWA
NATIONAL WEATHER SERVICE DES MOINES IA
1100 AM CDT WED APR 16 2014

NOTE: "FAIR" INDICATES FEW OR NO CLOUDS BELOW 12,000 FEET WITH NO
SIGNIFICANT WEATHER AND/OR OBSTRUCTIONS TO VISIBILITY.

* - THESE STATIONS ARE NOT NWS STATIONS...THUS NOT UNDER NWS
QUALITY CONTROL.  THEY ALSO DO NOT REPORT WEATHER SUCH
AS PRECIPITATION OR FOG.

IAZ001>003-012>014-020>022-031>034-043>046-161700-
   NORTHWEST IOWA

CITY           SKY/WX    TMP DP  RH WIND       PRES   REMARKS
CARROLL *      CLOUDY    52  32  46 S33G43    29.74S
CHEROKEE *     CLOUDY    49  31  51 S21       29.71R
DENISON *      CLOUDY    52  30  43 S31G43    29.71F
LE MARS *      CLOUDY    52  30  43 S15G24    29.69R
ORANGE CITY *  CLOUDY    48  27  43 S17       29.69R
SHELDON *      CLOUDY    48  30  49 S21G29    29.68F
SIOUX CITY     CLOUDY    52  29  41 S22G28    29.68R
SPENCER        CLOUDY    48  31  51 S15       29.73R
STORM LAKE *   CLOUDY    48  30  49 S23G31    29.72S
$$

IAZ055>058-069>071-079>083-090>094-161700-
   SOUTHWEST IOWA

CITY           SKY/WX    TMP DP  RH WIND       PRES   REMARKS
ATLANTIC *     PTSUNNY   55  28  35 S30G46    29.74F
AUDUBON *      CLOUDY    55  21  26 S25G35    29.76S
CLARINDA *     PTSUNNY   57  28  33 S33G44    29.81S
COUNCIL BLFS * CLOUDY    54  30  40 S22G31    29.73S
CRESTON *      PTSUNNY   55  30  38 S33G45    29.84F
HARLAN  *      CLOUDY    54  30  40 S36G47    29.76F
LAMONI         MOSUNNY   54  30  40 S25G39    29.91S
RED OAK *      CLOUDY    55  30  38 S31G45    29.77S
SHENANDOAH *   CLOUDY    57  30  35 S30G45    29.78S
$$

IAZ047>049-059>061-072>074-084-161700-
   CENTRAL IOWA

CITY           SKY/WX    TMP DP  RH WIND       PRES   REMARKS
AMES           PTSUNNY   55  30  38 S28G41    29.85F
ANKENY *       PTSUNNY   57  28  33 S23G37    29.86F
CHARITON *     MOSUNNY   54  32  43 S28G41    29.92S
DES MOINES     CLOUDY    58  28  32 S28G35    29.87F
GRINNELL*      PTSUNNY   53  32  45 S26G36    29.94F
KNOXVILLE *    MOSUNNY   57  28  33 S30G40    29.90F
MARSHALLTOWN   CLOUDY    51  32  48 S25G33    29.89F
NEWTON *       PTSUNNY   55  32  41 S25G35    29.92S
PELLA *        MOSUNNY   56  30  37 S25G32    29.94F
PERRY *          N/A     52  31  43 S32       29.80F
$$

IAZ004>006-015-016-023>025-035-036-161700-
   NORTH CENTRAL IOWA

CITY           SKY/WX    TMP DP  RH WIND       PRES   REMARKS
ALGONA *       CLOUDY    50  32  50 S26G38    29.77F
CLARION *      CLOUDY    50  32  50 S32G40    29.80S
ESTHERVILLE    CLOUDY    49  33  54 S24G33    29.73S
FORT DODGE *   CLOUDY    52  32  46 S28G39    29.79S
MASON CITY     CLOUDY    46  31  55 SE22G30   29.84F
FOREST CITY *    N/A     45  32  61 S23G31    29.81R
IOWA FALLS *     N/A     51  32  47 S30G36    29.85F
$$

IAZ007>011-017>019-026>030-037>042-050>054-066-161700-
   NORTHEAST IOWA

CITY           SKY/WX    TMP DP  RH WIND       PRES   REMARKS
CEDAR RAPIDS   MOSUNNY   48  28  46 SE22G33   30.01F
CHARLES CITY * CLOUDY    45  28  53 S22G32    29.90F
CLINTON *      PTSUNNY   45  27  49 SE24G30   30.17F
DECORAH *      CLOUDY    45  28  53 S16G30    29.95F
DUBUQUE        MOSUNNY   44  28  53 S28G36    30.07F
MONTICELLO *   CLOUDY    46  30  53 S28G35    30.06F
OELWEIN *      PTSUNNY  N/A N/A N/A SE30      29.97F
WATERLOO       CLOUDY    49  28  44 S29G37    29.93F
$$

IAZ064-065-067-068-078-161700-
   EAST CENTRAL IOWA

CITY           SKY/WX    TMP DP  RH WIND       PRES   REMARKS
DAVENPORT      MOSUNNY   46  29  51 SE23G33   30.13F
IOWA CITY      MOSUNNY   50  30  46 S23G33    30.07F
MT. PLEASANT * SUNNY     51  28  42 S26       30.08S
MUSCATINE *    SUNNY     50  28  43 S21G35    30.09F
QUAD CITIES    PTSUNNY   48  26  42 S17G29    30.14S
$$

IAZ062-063-075>077-085>089-095>099-161700-
   SOUTHEAST IOWA

CITY           SKY/WX    TMP DP  RH WIND       PRES   REMARKS
BURLINGTON     MOSUNNY   50  29  44 S23G30    30.11S
FAIRFIELD *    SUNNY     52  30  43 S21G32    30.03S
FORT MADISON * MOSUNNY   50  30  46 S22       30.11S
KEOKUK *       MOSUNNY   52  28  40 S16G25    30.09F
OSKALOOSA *      N/A     53  32  44 S25G32    29.99F
CENTERVILLE *    N/A     55  28  35 S23G30    29.98S
OTTUMWA        PTSUNNY   52  30  43 S21G30    29.98S
WASHINGTON *   SUNNY     52  30  43 S23G29    30.04S
$$

ABBREVIATIONS USED IN REMARKS
   TC - TEMPERATURES IN CELSIUS
  WCI - WIND CHILL INDEX
   HX - HEAT INDEX
  VSB - VISIBILITY
$$




USA.gov is the U.S. government's official web portal to all federal, state and local government web resources and services.